Regional Weather Roundup
Issued by NWS Cleveland, OH

Home | Current Version | Previous Version | Graphics & Text | Print | Product List | Glossary On
Versions: 1 2 3 4 5 6 7 8 9 10 11 12 13 14 15 16 17 18 19 20 21 22 23 24 25 26 27 28 29 30 31 32 33 34 35 36 37 38 39 40 41 42 43 44 45 46 47 48 49 50
000
ASUS41 KCLE 180302
RWRCLE
OHIO REGIONAL WEATHER ROUNDUP
NATIONAL WEATHER SERVICE CLEVELAND, OH
1100 PM EDT THU APR 17 2014

NOTE: "FAIR" INDICATES FEW OR NO CLOUDS BELOW 12,000 FEET WITH NO
SIGNIFICANT WEATHER AND/OR OBSTRUCTIONS TO VISIBILITY.

OHZ001>008-015>018-024>027-034-035-043-044-180400-
   NORTHWEST OHIO

CITY           SKY/WX    TMP DP  RH WIND       PRES   REMARKS
DEFIANCE       MOCLDY    56  33  42 S3        30.25F
FINDLAY        MOCLDY    54  37  52 SE6       30.26F
TOLEDO EXPRESS MOCLDY    56  34  43 S5        30.26S
TOLEDO EXEC    MOCLDY    52  36  54 S8        30.28R
LIMA           NOT AVBL
$$

OHZ009>014-019>023-028>033-038-089-180400-
   NORTHEAST OHIO

CITY           SKY/WX    TMP DP  RH WIND       PRES   REMARKS
CLE-HOPKINS    MOCLDY    54  33  45 S8        30.34R
CLE-LAKEFRONT  MOCLDY    59  31  34 S7        30.30R
CUY CO. ARPT   PTCLDY    55  30  38 S7        30.32R
LORAIN-ELYRIA  PTCLDY    55  34  45 S7        30.31R
ASHTABULA      PTCLDY    53  28  38 S10       30.34R
AKRON-CANTON   PTCLDY    55  28  35 CALM      30.33R
WOOSTER        CLEAR     44  35  70 CALM      30.33R
MANSFIELD      CLEAR     53  31  42 CALM      30.31S
YOUNGSTOWN     PTCLDY    51  27  39 SE8       30.34R
$$

OHZ042-051>053-060>062-070>072-077>081-180400-
  SOUTHWEST OHIO

CITY           SKY/WX    TMP DP  RH WIND       PRES   REMARKS
CINC-COVINGTON PTCLDY    53  34  48 CALM      30.28F
CINC-LUNKEN    CLEAR     47  41  80 CALM      30.29F
HAMILTON       CLEAR     49  42  77 W3        30.28F
DAYTON         PTCLDY    56  32  40 S6        30.29S
WRIGHT-PAT AFB PTCLDY    52  35  52 E1        30.28F
DAYTON GENERAL CLEAR     54  34  46 CALM      30.27F
WILMINGTON     CLEAR     49  34  56 CALM      30.29S
$$

OHZ036-037-039>041-045>050-054>059-063>069-073>076-082>088-180400-
  CENTRAL AND SOUTHEAST OHIO

CITY           SKY/WX    TMP DP  RH WIND       PRES   REMARKS
COLUMBUS       PTCLDY    53  34  48 E3        30.30F
OSU AIRPORT    PTCLDY    53  32  44 E3        30.29F
BOLTON FIELD   NOT AVBL
RICKENBACK AFB NOT AVBL
NEWARK         CLEAR     47  36  65 CALM      30.30F
MARION         PTCLDY    46  35  65 SE6       30.29F
LANCASTER      CLEAR     46  36  68 CALM      30.30F
ZANESVILLE     CLEAR     50  30  46 CALM      30.31F
NEW PHILLY     CLEAR     47  34  60 CALM      30.34R
$$



USA.gov is the U.S. government's official web portal to all federal, state and local government web resources and services.